Weather History for KAVL - May, 2006

Change the Weather History Date:

Thursday, May 11, 2006

  Actual Average Record
Temperature  
Mean Temperature 61 °F 62 °F  
Max Temperature 71 °F 74 °F 89 °F (1889)
Min Temperature 51 °F 50 °F 30 °F (1966)
Degree Days  
Heating Degree Days 4 4  
Month to date heating degree days 56  
Since 1 July heating degree days 4128  
Cooling Degree Days 0 1  
Month to date cooling degree days 10  
Year to date cooling degree days 18  
Growing Degree Days 11 (Base 50)    
Moisture  
Dew Point 50 °F    
Average Humidity 72    
Maximum Humidity 100    
Minimum Humidity 35    
Precipitation  
Precipitation 0.00 in 0.11 in 1.72 in (1943)
Month to date precipitation 1.24  
Year to date precipitation 15.83  
Snow  
Snow 0.00 in 0.00 in 0.00 in ()
Month to date snowfall 0.0  
Since 1 July snowfall 9.9  
Snow Depth -    
Sea Level Pressure  
Sea Level Pressure 29.67 in    
Wind  
Wind Speed 7 mph (SSW)    
Max Wind Speed 15 mph    
Max Gust Speed 24 mph    
Visibility 7 miles    
Events      
T = Trace of Precipitation, MM = Missing Value Source: NWS Daily Summary

Daily Weather History Graph

Daily Weather History Graph

Search for Another Location

Airport or City:

Trip Planner

Search our weather history database for the weather conditions in past years. The results will help you decide how hot, cold, wet, or windy it might be!

Date:

Astronomy

May. 11, 2006 Rise Set
Actual Time 6:28 AM EDT 8:24 PM EDT
Civil Twilight 6:00 AM EDT 8:52 PM EDT
Nautical Twilight 5:27 AM EDT 9:26 PM EDT
Astronomical Twilight 4:50 AM EDT 10:03 PM EDT
Moon 7:08 PM EDT (5/11) 5:17 AM EDT (5/11)
Length of Visible Light 14h 51m
Length of Day
13h 55m
Waxing Gibbous, 97% of the Moon is Illuminated
May 11
Waxing Gibbous
May 13
Full
May 20
Last Quarter
May 27
New
Jun 3
First Quarter

Hourly Weather History & Observations

Time (EDT) Temp. Dew Point Humidity Pressure Visibility Wind Dir Wind Speed Gust Speed Precip Events Conditions
12:54 AM 59.0 °F 55.9 °F 90% 29.72 in 7.0 mi South 6.9 mph - N/A   Partly Cloudy
1:54 AM 59.0 °F 55.9 °F 90% 29.70 in 4.0 mi SE 6.9 mph - N/A   Mostly Cloudy
2:54 AM 57.9 °F 55.0 °F 90% 29.67 in 4.0 mi Calm Calm - N/A   Clear
3:54 AM 57.0 °F 54.0 °F 89% 29.66 in 6.0 mi Calm Calm - N/A   Scattered Clouds
4:05 AM 57.2 °F 53.6 °F 88% 29.71 in 6.0 mi Calm Calm - N/A   Mostly Cloudy
4:54 AM 60.1 °F 55.0 °F 83% 29.65 in 10.0 mi SSW 5.8 mph - N/A   Overcast
5:54 AM 59.0 °F 55.9 °F 90% 29.65 in 5.0 mi South 9.2 mph - N/A   Overcast
6:19 AM 57.2 °F 57.2 °F 100% 29.69 in 2.5 mi South 5.8 mph - N/A   Overcast
6:33 AM 57.2 °F 55.4 °F 94% 29.70 in 3.0 mi South 4.6 mph - N/A   Overcast
6:40 AM 57.2 °F 57.2 °F 100% 29.70 in 2.0 mi SSE 4.6 mph - N/A   Overcast
6:54 AM 57.9 °F 55.9 °F 93% 29.64 in 2.0 mi SSE 3.5 mph - N/A   Overcast
7:09 AM 57.2 °F 57.2 °F 100% 29.70 in 1.2 mi South 6.9 mph - N/A   Overcast
7:16 AM 59.0 °F 57.2 °F 94% 29.70 in 2.0 mi South 6.9 mph - N/A   Overcast
7:54 AM 60.1 °F 57.9 °F 93% 29.65 in 2.0 mi South 6.9 mph - N/A   Overcast
7:58 AM 60.8 °F 57.2 °F 88% 29.70 in 3.0 mi South 6.9 mph - N/A   Overcast
8:20 AM 60.8 °F 57.2 °F 88% 29.70 in 4.0 mi South 6.9 mph - N/A   Overcast
8:54 AM 61.0 °F 57.0 °F 87% 29.65 in 4.0 mi South 11.5 mph - N/A   Overcast
9:54 AM 64.0 °F 57.0 °F 78% 29.61 in 6.0 mi SSW 10.4 mph - N/A   Haze
10:01 AM 64.4 °F 57.2 °F 77% 29.66 in 10.0 mi SSW 11.5 mph - N/A   Overcast
10:26 AM 66.2 °F 57.2 °F 73% 29.65 in 10.0 mi South 9.2 mph - N/A   Mostly Cloudy
10:54 AM 66.0 °F 55.9 °F 70% 29.60 in 10.0 mi SSW 11.5 mph - N/A   Mostly Cloudy
11:54 AM 64.0 °F 55.0 °F 73% 29.62 in 10.0 mi North 12.7 mph - 0.00 in   Scattered Clouds
12:01 PM 62.6 °F 53.6 °F 72% 29.67 in 10.0 mi North 15.0 mph - N/A   Scattered Clouds
12:54 PM 66.0 °F 52.0 °F 60% 29.61 in 10.0 mi Variable 5.8 mph - N/A   Scattered Clouds
1:54 PM 71.1 °F 42.1 °F 35% 29.60 in 10.0 mi West 11.5 mph 24.2 mph N/A   Scattered Clouds
2:54 PM 64.0 °F 39.9 °F 41% 29.64 in 10.0 mi WNW 10.4 mph 17.3 mph N/A   Overcast
3:54 PM 64.0 °F 42.1 °F 45% 29.66 in 10.0 mi WNW 13.8 mph 21.9 mph 0.00 in   Clear
4:54 PM 63.0 °F 37.9 °F 40% 29.68 in 10.0 mi NW 12.7 mph - N/A   Partly Cloudy
5:54 PM 60.1 °F 33.1 °F 36% 29.70 in 10.0 mi NW 15.0 mph 19.6 mph N/A   Clear
6:54 PM 60.1 °F 33.1 °F 36% 29.69 in 10.0 mi WNW 8.1 mph - N/A   Clear
7:54 PM 57.0 °F 33.1 °F 40% 29.70 in 10.0 mi West 5.8 mph - N/A   Partly Cloudy
8:54 PM 57.0 °F 33.1 °F 40% 29.71 in 10.0 mi WNW 6.9 mph - N/A   Clear
9:54 PM 54.0 °F 34.0 °F 47% 29.72 in 10.0 mi Calm Calm - N/A   Partly Cloudy
10:54 PM 51.1 °F 36.0 °F 56% 29.72 in 10.0 mi Calm Calm - N/A   Partly Cloudy
11:54 PM 51.1 °F 37.0 °F 59% 29.72 in 10.0 mi SW 5.8 mph - N/A   Partly Cloudy